Location: Proctor
(47.8934°N, 114.3048°W)
Time: 21:24:16
(UTC+00:00)

AO-91 - Visible Passes

Search period start: 27 June 2022 00:00
Search period end: 07 July 2022 00:00
Orbit: 450 x 799 km, 97.7° (Epoch: 27 June)

Date Brightness Start Highest point End Pass type
(mag) Time Alt. Az. Time Alt. Az. Time Alt. Az.
27 Jun ? 06:08:36 10° NNE 06:12:00 41° E 06:12:47 35° SE visible
27 Jun ? 07:45:52 10° NNW 07:47:54 15° WNW 07:49:54 10° W visible
28 Jun ? 06:27:13 10° NNE 06:30:45 73° ESE 06:31:39 45° S visible
29 Jun ? 06:45:57 10° N 06:49:26 64° WNW 06:50:30 39° SW visible
30 Jun ? 05:29:34 10° NE 05:31:31 14° E 05:32:06 14° ESE visible
30 Jun ? 07:04:48 10° N 07:08:03 37° WNW 07:09:21 26° WSW visible
01 Jul ? 05:47:34 10° NE 05:50:22 23° E 05:50:57 22° ESE visible
01 Jul ? 07:23:50 10° NNW 07:26:37 23° WNW 07:28:12 17° WSW visible
02 Jul ? 06:05:55 10° NNE 06:09:09 38° E 06:09:48 34° SE visible
02 Jul ? 07:43:07 10° NNW 07:45:08 15° WNW 07:47:03 10° W visible
03 Jul ? 06:24:28 10° NNE 06:27:52 67° ESE 06:28:38 48° SSE visible
04 Jul ? 06:43:08 10° N 06:46:32 69° WNW 06:47:28 43° SW visible
05 Jul ? 05:26:54 10° ENE 05:28:37 13° E 05:29:03 13° E visible
05 Jul ? 07:01:57 10° N 07:05:08 39° WNW 07:06:18 28° WSW visible
06 Jul ? 05:44:45 10° NE 05:47:25 21° E 05:47:53 21° ESE visible
06 Jul ? 07:20:55 10° NNW 07:23:42 24° WNW 07:25:08 18° WSW visible
